User: anonymous   Login
Location: Anjeux
(47.8815°N, 6.2076°E)
Time: 19:20:26
(UTC+00:00)
Language:

BUGSAT 1 - Orbit

View from above orbital plane
View from above orbital plane
View from above satellite
View from above satellite

Ground track
Ground track

The orbit data is extracted from the following two-line orbital elements,

1 40014U 14033E   21340.93982629  .00001122  00000-0  10494-3 0  9995
2 40014  98.1286 326.7683 0030531 316.9124  42.9705 14.95975761407358
Epoch (UTC): 06 December 2021 22:33:20
Eccentricity: 0.0030531
inclination: 98.1286°
perigee height: 558 km
apogee height: 600 km
right ascension of ascending node: 326.7683°
argument of perigee: 316.9124°
revolutions per day: 14.95975761
mean anomaly at epoch: 42.9705°
orbit number at epoch: 40735

The dashed part of the orbit path shows where the satellite is in the earth's shadow,  

DLR